Hourly Weather Rublivka

Today, 22 April, Thursday

Time Temperature Precipitation Wind Pressure Humidity
00:00 +7°C° 0 mm 3 mps 748 mmHg 77%
01:00 +7°C° 0 mm 3 mps 748 mmHg 78%
02:00 +6°C° 0 mm 4 mps 748 mmHg 78%
03:00 +5°C° 0 mm 3 mps 748 mmHg 79%
04:00 +5°C° 0 mm 3 mps 748 mmHg 79%
05:00 +5°C° 0 mm 3 mps 748 mmHg 80%
06:00 +7°C° 0 mm 4 mps 749 mmHg 74%
07:00 +10°C° 0 mm 4 mps 749 mmHg 67%
08:00 +12°C° 0 mm 4 mps 749 mmHg 61%
09:00 +13°C° 0 mm 4 mps 749 mmHg 55%
10:00 +15°C° 0 mm 5 mps 749 mmHg 48%
11:00 +16°C° 0 mm 5 mps 749 mmHg 42%
12:00 +16°C° 0 mm 5 mps 749 mmHg 44%
13:00 +15°C° 0 mm 5 mps 749 mmHg 46%
14:00 +15°C° 0 mm 5 mps 749 mmHg 49%
15:00 +15°C° 0 mm 5 mps 749 mmHg 50%
16:00 +15°C° 0 mm 4 mps 749 mmHg 52%
17:00 +15°C° 0 mm 4 mps 749 mmHg 53%
18:00 +13°C° 0 mm 4 mps 749 mmHg 57%
19:00 +12°C° 0 mm 4 mps 749 mmHg 61%
20:00 +11°C° 0 mm 4 mps 749 mmHg 65%
21:00 +10°C° 0 mm 5 mps 749 mmHg 69%
22:00 +9°C° 0 mm 5 mps 749 mmHg 73%
23:00 +8°C° 0 mm 5 mps 748 mmHg 77%

Tomorrow, 23 April, Friday

Time Temperature Precipitation Wind Pressure Humidity
00:00 +8°C° 0 mm 5 mps 748 mmHg 77%
01:00 +8°C° 0 mm 5 mps 748 mmHg 78%
02:00 +8°C° 0 mm 6 mps 748 mmHg 78%
03:00 +7°C° 0.2 mm 5 mps 747 mmHg 82%
04:00 +7°C° 0.2 mm 5 mps 747 mmHg 86%
05:00 +7°C° 0.2 mm 4 mps 747 mmHg 90%
06:00 +8°C° 0.3 mm 4 mps 747 mmHg 86%
07:00 +10°C° 0.3 mm 4 mps 747 mmHg 82%
08:00 +10°C° 0.3 mm 5 mps 748 mmHg 79%
09:00 +10°C° 0.2 mm 5 mps 747 mmHg 79%
10:00 +10°C° 0.2 mm 5 mps 747 mmHg 79%
11:00 +12°C° 0.2 mm 5 mps 747 mmHg 79%
12:00 +9°C° 0.9 mm 6 mps 747 mmHg 82%
13:00 +7°C° 0.9 mm 6 mps 748 mmHg 85%
14:00 +4°C° 0.9 mm 7 mps 748 mmHg 88%
15:00 +5°C° 0.1 mm 5 mps 748 mmHg 85%
16:00 +5°C° 0.1 mm 4 mps 748 mmHg 83%
17:00 +6°C° 0.1 mm 2 mps 748 mmHg 80%
18:00 +6°C° 0 mm 2 mps 748 mmHg 82%
19:00 +6°C° 0 mm 2 mps 748 mmHg 84%
20:00 +6°C° 0 mm 2 mps 749 mmHg 86%
21:00 +4°C° 0 mm 3 mps 749 mmHg 86%
22:00 +4°C° 0 mm 3 mps 748 mmHg 86%
23:00 +3°C° 0 mm 3 mps 748 mmHg 87%

Day after tomorrow, 24 April, Saturday

Time Temperature Precipitation Wind Pressure Humidity
00:00 +3°C° 0.1 mm 3 mps 748 mmHg 88%
01:00 +2°C° 0.1 mm 3 mps 748 mmHg 90%
02:00 +2°C° 0.1 mm 3 mps 748 mmHg 91%
03:00 +2°C° 0 mm 3 mps 748 mmHg 91%
04:00 +1°C° 0 mm 3 mps 748 mmHg 90%
05:00 +1°C° 0 mm 3 mps 748 mmHg 90%
06:00 +3°C° 0 mm 4 mps 748 mmHg 81%
07:00 +3°C° 0 mm 5 mps 748 mmHg 72%
08:00 +5°C° 0 mm 6 mps 749 mmHg 63%
09:00 +5°C° 0.3 mm 6 mps 749 mmHg 66%
10:00 +4°C° 0.3 mm 7 mps 749 mmHg 68%
11:00 +4°C° 0.3 mm 8 mps 749 mmHg 70%
12:00 +5°C° 0.1 mm 8 mps 749 mmHg 59%
13:00 +6°C° 0.1 mm 8 mps 749 mmHg 49%
14:00 +7°C° 0.1 mm 8 mps 749 mmHg 38%
15:00 +6°C° 0 mm 7 mps 749 mmHg 40%
16:00 +6°C° 0 mm 7 mps 750 mmHg 42%
17:00 +7°C° 0 mm 6 mps 750 mmHg 44%
18:00 +6°C° 0 mm 5 mps 750 mmHg 50%
19:00 +4°C° 0 mm 4 mps 751 mmHg 55%
20:00 +3°C° 0 mm 3 mps 751 mmHg 61%
21:00 +2°C° 0 mm 3 mps 751 mmHg 62%
22:00 +2°C° 0 mm 3 mps 751 mmHg 64%
23:00 +1°C° 0 mm 3 mps 751 mmHg 65%

25 April, Sunday

Time Temperature Precipitation Wind Pressure Humidity
00:00 +1°C° 0 mm 3 mps 751 mmHg 67%
01:00 +1°C° 0 mm 3 mps 751 mmHg 68%
02:00 +1°C° 0 mm 3 mps 751 mmHg 69%
03:00 0°C° 0 mm 3 mps 751 mmHg 72%
04:00 0°C° 0 mm 3 mps 751 mmHg 74%
05:00 0°C° 0 mm 3 mps 751 mmHg 77%
06:00 +2°C° 0 mm 3 mps 751 mmHg 69%
07:00 +4°C° 0 mm 4 mps 751 mmHg 62%
08:00 +6°C° 0 mm 4 mps 751 mmHg 54%
09:00 +7°C° 0 mm 4 mps 751 mmHg 49%
10:00 +8°C° 0 mm 4 mps 750 mmHg 44%
11:00 +10°C° 0 mm 4 mps 750 mmHg 39%
12:00 +10°C° 0 mm 5 mps 750 mmHg 40%
13:00 +10°C° 0 mm 5 mps 749 mmHg 40%
14:00 +12°C° 0 mm 5 mps 749 mmHg 41%
15:00 +12°C° 0 mm 5 mps 748 mmHg 46%
16:00 +10°C° 0 mm 5 mps 748 mmHg 50%
17:00 +10°C° 0 mm 5 mps 748 mmHg 55%
18:00 +8°C° 1.1 mm 5 mps 748 mmHg 67%
19:00 +6°C° 1.1 mm 4 mps 749 mmHg 79%
20:00 +4°C° 1.1 mm 3 mps 749 mmHg 91%
21:00 +5°C° 0.5 mm 2 mps 749 mmHg 91%
22:00 +5°C° 0.5 mm 1 mps 749 mmHg 91%
23:00 +5°C° 0.5 mm 1 mps 749 mmHg 92%

26 April, Monday

Time Temperature Precipitation Wind Pressure Humidity
00:00 +5°C° 0 mm 1 mps 749 mmHg 91%
01:00 +5°C° 0 mm 1 mps 748 mmHg 91%
02:00 +4°C° 0 mm 2 mps 748 mmHg 90%
03:00 +4°C° 0.1 mm 2 mps 748 mmHg 90%
04:00 +4°C° 0.1 mm 2 mps 748 mmHg 89%
05:00 +4°C° 0.1 mm 2 mps 748 mmHg 89%
06:00 +5°C° 0.1 mm 2 mps 748 mmHg 80%
07:00 +6°C° 0.1 mm 2 mps 748 mmHg 72%
08:00 +5°C° 0.1 mm 3 mps 748 mmHg 64%
09:00 +7°C° 0 mm 3 mps 748 mmHg 56%
10:00 +7°C° 0 mm 4 mps 748 mmHg 49%
11:00 +8°C° 0 mm 4 mps 748 mmHg 41%
12:00 +9°C° 0 mm 5 mps 747 mmHg 40%
13:00 +9°C° 0 mm 6 mps 747 mmHg 39%
14:00 +10°C° 0 mm 7 mps 747 mmHg 38%
15:00 +9°C° 0 mm 7 mps 747 mmHg 41%
16:00 +9°C° 0 mm 7 mps 746 mmHg 44%
17:00 +8°C° 0 mm 7 mps 746 mmHg 47%
18:00 +7°C° 0 mm 5 mps 747 mmHg 53%
19:00 +5°C° 0 mm 4 mps 747 mmHg 59%
20:00 +4°C° 0 mm 3 mps 747 mmHg 65%
21:00 +3°C° 0 mm 3 mps 748 mmHg 66%
22:00 +3°C° 0 mm 3 mps 748 mmHg 66%
23:00 +2°C° 0 mm 3 mps 748 mmHg 67%

27 April, Tuesday

Time Temperature Precipitation Wind Pressure Humidity
00:00 +2°C° 0 mm 3 mps 748 mmHg 67%
01:00 +1°C° 0 mm 3 mps 748 mmHg 67%
02:00 +1°C° 0 mm 3 mps 748 mmHg 67%
03:00 +1°C° 0 mm 3 mps 748 mmHg 67%
04:00 +1°C° 0 mm 3 mps 748 mmHg 68%
05:00 0°C° 0 mm 3 mps 748 mmHg 68%
06:00 +2°C° 0 mm 3 mps 748 mmHg 62%
07:00 +5°C° 0 mm 3 mps 749 mmHg 56%
08:00 +8°C° 0 mm 3 mps 749 mmHg 49%
09:00 +9°C° 0 mm 3 mps 749 mmHg 46%
10:00 +10°C° 0 mm 3 mps 749 mmHg 42%
11:00 +11°C° 0 mm 3 mps 748 mmHg 39%
12:00 +12°C° 0 mm 3 mps 748 mmHg 39%
13:00 +12°C° 0 mm 3 mps 748 mmHg 39%
14:00 +13°C° 0 mm 3 mps 747 mmHg 39%
15:00 +12°C° 0 mm 4 mps 747 mmHg 45%
16:00 +12°C° 0 mm 5 mps 747 mmHg 52%
17:00 +10°C° 0 mm 5 mps 747 mmHg 58%
18:00 +9°C° 0 mm 5 mps 747 mmHg 67%
19:00 +7°C° 0 mm 4 mps 747 mmHg 75%
20:00 +6°C° 0 mm 4 mps 748 mmHg 84%
21:00 +7°C° 0 mm 3 mps 747 mmHg 83%
22:00 +7°C° 0 mm 3 mps 747 mmHg 83%
23:00 +7°C° 0 mm 2 mps 747 mmHg 83%
Show more